Time,TemperatureF,DewpointF,PressureIn,WindDirection,WindDirectionDegrees,WindSpeedMPH,WindSpeedGustMPH,Humidity,HourlyPrecipIn,Conditions,Clouds,dailyrainin,SoftwareType,DateUTC
2013-09-06 00:04:00,67.7,60.2,30.12,SSW,206,0.0,0.0,77,0.00,,,0.00,Wunderground v.1.15,2013-09-06 05:04:00,
2013-09-06 00:09:00,67.4,59.9,30.12,SSW,206,0.0,0.0,77,0.00,,,0.00,Wunderground v.1.15,2013-09-06 05:09:00,
2013-09-06 00:14:00,67.2,60.5,30.12,SSW,206,0.0,0.0,79,0.00,,,0.00,Wunderground v.1.15,2013-09-06 05:14:00,
2013-09-06 00:19:00,66.9,60.5,30.12,SSW,206,0.0,0.0,80,0.00,,,0.00,Wunderground v.1.15,2013-09-06 05:19:00,
2013-09-06 00:25:00,66.7,60.3,30.12,SSW,206,0.0,0.0,80,0.00,,,0.00,Wunderground v.1.15,2013-09-06 05:25:00,
2013-09-06 00:30:00,66.6,60.2,30.12,SSW,206,0.0,0.0,80,0.00,,,0.00,Wunderground v.1.15,2013-09-06 05:30:00,
2013-09-06 00:35:00,66.5,60.5,30.12,SSW,206,0.0,0.0,81,0.00,,,0.00,Wunderground v.1.15,2013-09-06 05:35:00,
2013-09-06 00:41:00,66.5,60.1,30.12,SSW,206,0.0,0.0,80,0.00,,,0.00,Wunderground v.1.15,2013-09-06 05:41:00,
2013-09-06 00:46:00,66.4,60.4,30.12,SSW,206,0.0,0.0,81,0.00,,,0.00,Wunderground v.1.15,2013-09-06 05:46:00,
2013-09-06 00:51:00,66.3,60.3,30.12,SSW,206,0.0,0.0,81,0.00,,,0.00,Wunderground v.1.15,2013-09-06 05:51:00,
2013-09-06 00:57:00,66.1,60.1,30.12,SSW,206,0.0,0.0,81,0.00,,,0.00,Wunderground v.1.15,2013-09-06 05:57:00,
2013-09-06 01:02:00,66.1,60.1,30.12,SSW,206,0.0,0.0,81,0.00,,,0.00,Wunderground v.1.15,2013-09-06 06:02:00,
2013-09-06 01:08:00,66.0,60.3,30.12,SSW,206,0.0,0.0,82,0.00,,,0.00,Wunderground v.1.15,2013-09-06 06:08:00,
2013-09-06 01:13:00,65.7,60.1,30.12,SSW,206,0.0,0.0,82,0.00,,,0.00,Wunderground v.1.15,2013-09-06 06:13:00,
2013-09-06 01:19:00,65.5,60.2,30.12,SSW,206,0.0,0.0,83,0.00,,,0.00,Wunderground v.1.15,2013-09-06 06:19:00,
2013-09-06 01:24:00,65.4,60.1,30.12,SSW,206,0.0,0.0,83,0.00,,,0.00,Wunderground v.1.15,2013-09-06 06:24:00,
2013-09-06 01:29:00,65.3,60.3,30.12,SSW,206,0.0,0.0,84,0.00,,,0.00,Wunderground v.1.15,2013-09-06 06:29:00,
2013-09-06 01:35:00,65.3,60.3,30.12,SSW,206,0.0,0.0,84,0.00,,,0.00,Wunderground v.1.15,2013-09-06 06:35:00,
2013-09-06 01:40:00,65.5,60.5,30.12,SSW,206,0.0,0.0,84,0.00,,,0.00,Wunderground v.1.15,2013-09-06 06:40:00,
2013-09-06 01:45:00,65.7,60.7,30.11,SSW,206,0.0,0.0,84,0.00,,,0.00,Wunderground v.1.15,2013-09-06 06:45:00,
2013-09-06 01:51:00,65.7,60.7,30.11,SSW,206,0.0,0.0,84,0.00,,,0.00,Wunderground v.1.15,2013-09-06 06:51:00,
2013-09-06 01:56:00,65.8,60.8,30.11,SSW,206,0.0,0.0,84,0.00,,,0.00,Wunderground v.1.15,2013-09-06 06:56:00,
2013-09-06 02:01:00,65.8,60.8,30.11,SSW,206,0.0,0.0,84,0.00,,,0.00,Wunderground v.1.15,2013-09-06 07:01:00,
2013-09-06 02:06:00,65.9,60.9,30.11,SSW,206,0.0,0.0,84,0.00,,,0.00,Wunderground v.1.15,2013-09-06 07:06:00,
2013-09-06 02:12:00,65.8,60.8,30.11,SSW,206,0.0,0.0,84,0.00,,,0.00,Wunderground v.1.15,2013-09-06 07:12:00,
2013-09-06 02:17:00,65.6,60.6,30.11,SSW,206,0.0,0.0,84,0.00,,,0.00,Wunderground v.1.15,2013-09-06 07:17:00,
2013-09-06 02:22:00,65.4,60.4,30.11,SSW,206,0.0,0.0,84,0.00,,,0.00,Wunderground v.1.15,2013-09-06 07:22:00,
2013-09-06 02:28:00,65.4,61.1,30.11,SSW,206,0.0,0.0,86,0.00,,,0.00,Wunderground v.1.15,2013-09-06 07:28:00,
2013-09-06 02:33:00,65.5,61.2,30.11,SSW,206,0.0,0.0,86,0.00,,,0.00,Wunderground v.1.15,2013-09-06 07:33:00,
2013-09-06 02:38:00,65.6,61.0,30.11,SSW,206,0.0,0.0,85,0.00,,,0.00,Wunderground v.1.15,2013-09-06 07:38:00,
2013-09-06 02:45:00,65.6,61.0,30.11,SSW,206,0.0,0.0,85,0.00,,,0.00,Wunderground v.1.15,2013-09-06 07:45:00,
2013-09-06 02:50:00,65.6,60.6,30.11,SSW,206,0.0,0.0,84,0.00,,,0.00,Wunderground v.1.15,2013-09-06 07:50:00,
2013-09-06 02:55:00,65.6,60.6,30.11,SSW,206,0.0,0.0,84,0.00,,,0.00,Wunderground v.1.15,2013-09-06 07:55:00,
2013-09-06 03:00:00,65.6,61.0,30.11,SSW,206,0.0,0.0,85,0.00,,,0.00,Wunderground v.1.15,2013-09-06 08:00:00,
2013-09-06 03:06:00,65.6,61.0,30.11,SSW,206,0.0,0.0,85,0.00,,,0.00,Wunderground v.1.15,2013-09-06 08:06:00,
2013-09-06 03:11:00,65.6,61.0,30.11,SSW,206,0.0,0.0,85,0.00,,,0.00,Wunderground v.1.15,2013-09-06 08:11:00,
2013-09-06 03:16:00,65.3,60.7,30.11,SSW,206,0.0,0.0,85,0.00,,,0.00,Wunderground v.1.15,2013-09-06 08:16:00,
2013-09-06 03:22:00,65.0,60.7,30.11,SSW,206,0.0,0.0,86,0.00,,,0.00,Wunderground v.1.15,2013-09-06 08:22:00,
2013-09-06 03:27:00,64.9,60.6,30.11,SSW,206,0.0,0.0,86,0.00,,,0.00,Wunderground v.1.15,2013-09-06 08:27:00,
2013-09-06 03:32:00,64.8,60.5,30.11,SSW,206,0.0,0.0,86,0.00,,,0.00,Wunderground v.1.15,2013-09-06 08:32:00,
2013-09-06 03:37:00,64.3,59.7,30.11,SSW,206,0.0,1.0,85,0.00,,,0.00,Wunderground v.1.15,2013-09-06 08:37:00,
2013-09-06 03:43:00,63.9,59.6,30.11,SSW,205,0.0,0.0,86,0.00,,,0.00,Wunderground v.1.15,2013-09-06 08:43:00,
2013-09-06 03:52:00,63.7,59.8,30.11,SSW,205,0.0,0.0,87,0.00,,,0.00,Wunderground v.1.15,2013-09-06 08:52:00,
2013-09-06 03:57:00,63.7,60.1,30.11,SSW,205,0.0,0.0,88,0.00,,,0.00,Wunderground v.1.15,2013-09-06 08:57:00,
2013-09-06 04:03:00,63.6,60.0,30.11,SSW,205,0.0,0.0,88,0.00,,,0.00,Wunderground v.1.15,2013-09-06 09:03:00,
2013-09-06 04:08:00,63.4,59.5,30.11,SSW,205,0.0,0.0,87,0.00,,,0.00,Wunderground v.1.15,2013-09-06 09:08:00,
2013-09-06 04:13:00,63.2,59.6,30.11,SSW,205,0.0,0.0,88,0.00,,,0.00,Wunderground v.1.15,2013-09-06 09:13:00,
2013-09-06 04:19:00,63.2,59.6,30.11,SSW,205,0.0,0.0,88,0.00,,,0.00,Wunderground v.1.15,2013-09-06 09:19:00,
2013-09-06 04:30:00,62.8,59.8,30.11,SSW,205,0.0,0.0,90,0.00,,,0.00,Wunderground v.1.15,2013-09-06 09:30:00,
2013-09-06 04:35:00,62.8,59.8,30.11,SSW,206,0.0,0.0,90,0.00,,,0.00,Wunderground v.1.15,2013-09-06 09:35:00,
2013-09-06 04:40:00,62.9,59.9,30.11,SSW,205,0.0,0.0,90,0.00,,,0.00,Wunderground v.1.15,2013-09-06 09:40:00,
2013-09-06 04:58:00,63.0,60.0,30.11,SSW,206,0.0,0.0,90,0.00,,,0.00,Wunderground v.1.15,2013-09-06 09:58:00,
2013-09-06 05:04:00,62.9,59.9,30.11,SSW,206,0.0,0.0,90,0.00,,,0.00,Wunderground v.1.15,2013-09-06 10:04:00,
2013-09-06 05:09:00,62.9,59.6,30.11,SSW,206,0.0,0.0,89,0.00,,,0.00,Wunderground v.1.15,2013-09-06 10:09:00,
2013-09-06 05:14:00,62.6,59.3,30.11,SSW,206,0.0,0.0,89,0.00,,,0.00,Wunderground v.1.15,2013-09-06 10:14:00,
2013-09-06 05:20:00,62.3,59.3,30.11,SSW,206,0.0,0.0,90,0.00,,,0.00,Wunderground v.1.15,2013-09-06 10:20:00,
2013-09-06 05:25:00,62.3,59.3,30.11,SSW,206,0.0,0.0,90,0.00,,,0.00,Wunderground v.1.15,2013-09-06 10:25:00,
2013-09-06 05:30:00,62.3,59.3,30.11,SSW,206,0.0,0.0,90,0.00,,,0.00,Wunderground v.1.15,2013-09-06 10:30:00,
2013-09-06 05:35:00,62.4,59.4,30.11,SSW,206,0.0,0.0,90,0.00,,,0.00,Wunderground v.1.15,2013-09-06 10:35:00,
2013-09-06 05:41:00,62.5,59.5,30.11,SSW,206,0.0,0.0,90,0.00,,,0.00,Wunderground v.1.15,2013-09-06 10:41:00,
2013-09-06 05:46:00,62.5,59.2,30.11,SSW,206,0.0,0.0,89,0.00,,,0.00,Wunderground v.1.15,2013-09-06 10:46:00,
2013-09-06 05:51:00,62.4,59.1,30.11,SSW,206,0.0,0.0,89,0.00,,,0.00,Wunderground v.1.15,2013-09-06 10:51:00,
2013-09-06 05:57:00,62.6,59.6,30.11,SSW,206,0.0,0.0,90,0.00,,,0.00,Wunderground v.1.15,2013-09-06 10:57:00,
2013-09-06 06:02:00,62.6,59.6,30.11,SSW,206,0.0,0.0,90,0.00,,,0.00,Wunderground v.1.15,2013-09-06 11:02:00,
2013-09-06 06:08:00,62.7,59.7,30.11,SSW,206,0.0,0.0,90,0.00,,,0.00,Wunderground v.1.15,2013-09-06 11:08:00,
2013-09-06 06:25:00,62.9,59.9,30.11,SSW,206,0.0,0.0,90,0.00,,,0.00,Wunderground v.1.15,2013-09-06 11:25:00,
2013-09-06 06:31:00,62.7,59.4,30.11,SSW,206,0.0,0.0,89,0.00,,,0.00,Wunderground v.1.15,2013-09-06 11:31:00,
2013-09-06 06:36:00,62.6,59.6,30.11,SSW,206,0.0,0.0,90,0.00,,,0.00,Wunderground v.1.15,2013-09-06 11:36:00,
2013-09-06 06:42:00,62.4,59.4,30.12,SSW,206,0.0,0.0,90,0.00,,,0.00,Wunderground v.1.15,2013-09-06 11:42:00,
2013-09-06 06:47:00,62.2,59.2,30.11,SSW,206,0.0,0.0,90,0.00,,,0.00,Wunderground v.1.15,2013-09-06 11:47:00,
2013-09-06 06:53:00,62.0,59.0,30.11,SSW,206,0.0,0.0,90,0.00,,,0.00,Wunderground v.1.15,2013-09-06 11:53:00,
2013-09-06 06:58:00,62.0,59.0,30.11,SSW,206,0.0,0.0,90,0.00,,,0.00,Wunderground v.1.15,2013-09-06 11:58:00,
2013-09-06 07:04:00,62.1,59.4,30.12,SSW,206,0.0,0.0,91,0.00,,,0.00,Wunderground v.1.15,2013-09-06 12:04:00,
2013-09-06 07:09:00,62.5,59.8,30.12,SSW,206,0.0,0.0,91,0.00,,,0.00,Wunderground v.1.15,2013-09-06 12:09:00,
2013-09-06 07:15:00,62.9,60.2,30.12,SSW,206,0.0,0.0,91,0.00,,,0.00,Wunderground v.1.15,2013-09-06 12:15:00,
2013-09-06 07:20:00,63.1,60.1,30.12,SSW,206,0.0,0.0,90,0.00,,,0.00,Wunderground v.1.15,2013-09-06 12:20:00,
2013-09-06 07:26:00,63.4,60.4,30.12,SSW,206,0.0,0.0,90,0.00,,,0.00,Wunderground v.1.15,2013-09-06 12:26:00,
2013-09-06 07:32:00,63.7,60.4,30.12,SSW,206,0.0,0.0,89,0.00,,,0.00,Wunderground v.1.15,2013-09-06 12:32:00,
2013-09-06 07:38:00,63.9,60.6,30.12,SSW,206,0.0,0.0,89,0.00,,,0.00,Wunderground v.1.15,2013-09-06 12:38:00,
2013-09-06 07:44:00,64.3,61.0,30.12,SSW,206,0.0,0.0,89,0.00,,,0.00,Wunderground v.1.15,2013-09-06 12:44:00,
2013-09-06 07:49:00,64.7,61.4,30.12,SSW,206,0.0,0.0,89,0.00,,,0.00,Wunderground v.1.15,2013-09-06 12:49:00,
2013-09-06 07:54:00,65.0,61.7,30.12,SSW,206,0.0,0.0,89,0.00,,,0.00,Wunderground v.1.15,2013-09-06 12:54:00,
2013-09-06 08:00:00,65.6,62.3,30.13,SSW,206,0.0,0.0,89,0.00,,,0.00,Wunderground v.1.15,2013-09-06 13:00:00,
2013-09-06 08:06:00,66.2,62.2,30.12,SSW,207,1.0,3.0,87,0.00,,,0.00,Wunderground v.1.15,2013-09-06 13:06:00,
2013-09-06 08:11:00,66.8,62.8,30.12,SSW,207,1.0,1.0,87,0.00,,,0.00,Wunderground v.1.15,2013-09-06 13:11:00,
2013-09-06 08:17:00,67.2,62.9,30.12,SSW,207,1.0,1.0,86,0.00,,,0.00,Wunderground v.1.15,2013-09-06 13:17:00,
2013-09-06 08:23:00,67.6,62.9,30.12,SSW,207,1.0,1.0,85,0.00,,,0.00,Wunderground v.1.15,2013-09-06 13:23:00,
2013-09-06 08:28:00,67.9,62.9,30.13,SSW,207,1.0,1.0,84,0.00,,,0.00,Wunderground v.1.15,2013-09-06 13:28:00,
2013-09-06 08:34:00,68.5,63.5,30.13,SSW,207,1.0,1.0,84,0.00,,,0.00,Wunderground v.1.15,2013-09-06 13:34:00,
2013-09-06 08:39:00,69.0,64.0,30.13,SSW,207,0.0,1.0,84,0.00,,,0.00,Wunderground v.1.15,2013-09-06 13:39:00,
2013-09-06 08:45:00,69.6,63.9,30.13,SW,235,1.0,4.0,82,0.00,,,0.00,Wunderground v.1.15,2013-09-06 13:45:00,
2013-09-06 08:50:00,70.2,63.7,30.13,SW,236,2.0,2.0,80,0.00,,,0.00,Wunderground v.1.15,2013-09-06 13:50:00,
2013-09-06 08:56:00,70.8,64.0,30.13,SW,232,2.0,2.0,79,0.00,,,0.00,Wunderground v.1.15,2013-09-06 13:56:00,
2013-09-06 09:01:00,71.4,64.5,30.13,SW,232,1.0,1.0,79,0.00,,,0.00,Wunderground v.1.15,2013-09-06 14:01:00,
2013-09-06 09:07:00,72.2,65.0,30.13,SW,232,1.0,3.0,78,0.00,,,0.00,Wunderground v.1.15,2013-09-06 14:07:00,
2013-09-06 09:13:00,72.9,65.3,30.13,SW,232,1.0,2.0,77,0.00,,,0.00,Wunderground v.1.15,2013-09-06 14:13:00,
2013-09-06 09:18:00,73.3,64.9,30.13,WSW,242,1.0,4.0,75,0.00,,,0.00,Wunderground v.1.15,2013-09-06 14:18:00,
2013-09-06 09:23:00,73.8,65.0,30.13,WSW,242,2.0,5.0,74,0.00,,,0.00,Wunderground v.1.15,2013-09-06 14:23:00,
2013-09-06 09:29:00,74.4,65.6,30.13,WSW,250,2.0,5.0,74,0.00,,,0.00,Wunderground v.1.15,2013-09-06 14:29:00,
2013-09-06 09:34:00,75.0,65.8,30.13,WSW,250,2.0,3.0,73,0.00,,,0.00,Wunderground v.1.15,2013-09-06 14:34:00,
2013-09-06 09:40:00,75.7,66.4,30.13,WSW,241,2.0,4.0,73,0.00,,,0.00,Wunderground v.1.15,2013-09-06 14:40:00,
2013-09-06 09:45:00,76.4,66.3,30.13,SW,215,2.0,5.0,71,0.00,,,0.00,Wunderground v.1.15,2013-09-06 14:45:00,
2013-09-06 09:51:00,77.2,66.2,30.13,SW,215,1.0,1.0,69,0.00,,,0.00,Wunderground v.1.15,2013-09-06 14:51:00,
2013-09-06 09:56:00,77.8,66.4,30.13,SSW,205,1.0,5.0,68,0.00,,,0.00,Wunderground v.1.15,2013-09-06 14:56:00,
2013-09-06 10:02:00,78.5,66.6,30.13,South,186,1.0,4.0,67,0.00,,,0.00,Wunderground v.1.15,2013-09-06 15:02:00,
2013-09-06 10:07:00,79.0,66.2,30.13,SW,233,2.0,4.0,65,0.00,,,0.00,Wunderground v.1.15,2013-09-06 15:07:00,
2013-09-06 10:13:00,79.2,66.4,30.13,WSW,245,3.0,5.0,65,0.00,,,0.00,Wunderground v.1.15,2013-09-06 15:13:00,
2013-09-06 10:19:00,79.8,66.5,30.13,WSW,243,2.0,5.0,64,0.00,,,0.00,Wunderground v.1.15,2013-09-06 15:19:00,
2013-09-06 10:25:00,80.1,66.4,30.12,SW,225,2.0,5.0,63,0.00,,,0.00,Wunderground v.1.15,2013-09-06 15:25:00,
2013-09-06 10:30:00,80.5,66.3,30.12,SW,226,3.0,3.0,62,0.00,,,0.00,Wunderground v.1.15,2013-09-06 15:30:00,
2013-09-06 10:36:00,80.7,66.9,30.13,West,265,4.0,7.0,63,0.00,,,0.00,Wunderground v.1.15,2013-09-06 15:36:00,
2013-09-06 10:42:00,81.1,66.8,30.13,WNW,288,4.0,5.0,62,0.00,,,0.00,Wunderground v.1.15,2013-09-06 15:42:00,
2013-09-06 10:47:00,81.4,66.7,30.13,West,276,5.0,8.0,61,0.00,,,0.00,Wunderground v.1.15,2013-09-06 15:47:00,
2013-09-06 10:52:00,81.5,65.8,30.13,WSW,244,5.0,8.0,59,0.00,,,0.00,Wunderground v.1.15,2013-09-06 15:52:00,
2013-09-06 10:58:00,82.4,66.1,30.12,SSW,202,4.0,8.0,58,0.00,,,0.00,Wunderground v.1.15,2013-09-06 15:58:00,
2013-09-06 11:04:00,82.8,66.0,30.12,SSW,199,4.0,5.0,57,0.00,,,0.00,Wunderground v.1.15,2013-09-06 16:04:00,
2013-09-06 11:15:00,83.5,65.6,30.12,WSW,240,4.0,6.0,55,0.00,,,0.00,Wunderground v.1.15,2013-09-06 16:15:00,
2013-09-06 11:26:00,84.1,65.1,30.12,SW,222,3.0,5.0,53,0.00,,,0.00,Wunderground v.1.15,2013-09-06 16:26:00,
2013-09-06 11:40:00,84.2,63.5,30.11,WSW,246,5.0,5.0,50,0.00,,,0.00,Wunderground v.1.15,2013-09-06 16:40:00,
2013-09-06 11:46:00,84.2,63.5,30.11,SW,227,6.0,8.0,50,0.00,,,0.00,Wunderground v.1.15,2013-09-06 16:46:00,
2013-09-06 11:54:00,84.8,64.7,30.11,NW,304,6.0,6.0,51,0.00,,,0.00,Wunderground v.1.15,2013-09-06 16:54:00,
2013-09-06 12:00:00,85.2,64.5,30.10,WSW,247,4.0,6.0,50,0.00,,,0.00,Wunderground v.1.15,2013-09-06 17:00:00,
2013-09-06 12:06:00,85.2,65.0,30.10,SW,234,5.0,9.0,51,0.00,,,0.00,Wunderground v.1.15,2013-09-06 17:06:00,
2013-09-06 12:11:00,85.3,64.0,30.10,South,173,6.0,6.0,49,0.00,,,0.00,Wunderground v.1.15,2013-09-06 17:11:00,
2013-09-06 12:17:00,85.2,62.7,30.10,SW,215,5.0,9.0,47,0.00,,,0.00,Wunderground v.1.15,2013-09-06 17:17:00,
2013-09-06 12:22:00,85.9,62.7,30.10,SW,217,4.0,4.0,46,0.00,,,0.00,Wunderground v.1.15,2013-09-06 17:22:00,
2013-09-06 12:28:00,86.3,62.5,30.09,SSW,201,3.0,10.0,45,0.00,,,0.00,Wunderground v.1.15,2013-09-06 17:28:00,
2013-09-06 12:33:00,86.5,62.6,30.09,WSW,257,4.0,8.0,45,0.00,,,0.00,Wunderground v.1.15,2013-09-06 17:33:00,
2013-09-06 12:39:00,86.7,63.4,30.09,West,263,3.0,8.0,46,0.00,,,0.00,Wunderground v.1.15,2013-09-06 17:39:00,
2013-09-06 12:44:00,87.0,62.5,30.08,SW,231,4.0,6.0,44,0.00,,,0.00,Wunderground v.1.15,2013-09-06 17:44:00,
2013-09-06 12:50:00,87.5,62.9,30.08,SSE,148,4.0,6.0,44,0.00,,,0.00,Wunderground v.1.15,2013-09-06 17:50:00,
2013-09-06 12:55:00,87.7,62.4,30.08,ESE,118,4.0,6.0,43,0.00,,,0.00,Wunderground v.1.15,2013-09-06 17:55:00,
2013-09-06 13:01:00,87.6,63.0,30.08,WNW,292,4.0,7.0,44,0.00,,,0.00,Wunderground v.1.15,2013-09-06 18:01:00,
2013-09-06 13:06:00,87.3,63.4,30.08,WSW,244,5.0,7.0,45,0.00,,,0.00,Wunderground v.1.15,2013-09-06 18:06:00,
2013-09-06 13:12:00,87.0,63.1,30.07,SW,218,4.0,5.0,45,0.00,,,0.00,Wunderground v.1.15,2013-09-06 18:12:00,
2013-09-06 13:17:00,87.2,62.6,30.07,SW,234,3.0,8.0,44,0.00,,,0.00,Wunderground v.1.15,2013-09-06 18:17:00,
2013-09-06 13:23:00,87.1,61.9,30.07,West,279,5.0,7.0,43,0.00,,,0.00,Wunderground v.1.15,2013-09-06 18:23:00,
2013-09-06 13:28:00,87.0,63.1,30.07,WSW,243,5.0,8.0,45,0.00,,,0.00,Wunderground v.1.15,2013-09-06 18:28:00,
2013-09-06 13:34:00,87.2,62.6,30.07,West,275,5.0,9.0,44,0.00,,,0.00,Wunderground v.1.15,2013-09-06 18:34:00,
2013-09-06 13:40:00,87.4,62.2,30.07,WSW,244,5.0,5.0,43,0.00,,,0.00,Wunderground v.1.15,2013-09-06 18:40:00,
2013-09-06 13:45:00,87.9,62.6,30.06,SSW,200,4.0,5.0,43,0.00,,,0.00,Wunderground v.1.15,2013-09-06 18:45:00,
2013-09-06 13:50:00,88.3,61.6,30.06,WSW,257,3.0,5.0,41,0.00,,,0.00,Wunderground v.1.15,2013-09-06 18:50:00,
2013-09-06 13:56:00,88.6,62.6,30.06,SW,220,4.0,7.0,42,0.00,,,0.00,Wunderground v.1.15,2013-09-06 18:56:00,
2013-09-06 14:02:00,88.5,62.5,30.05,WSW,241,3.0,4.0,42,0.00,,,0.00,Wunderground v.1.15,2013-09-06 19:02:00,
2013-09-06 14:07:00,88.8,62.1,30.05,WNW,294,2.0,9.0,41,0.00,,,0.00,Wunderground v.1.15,2013-09-06 19:07:00,
2013-09-06 14:13:00,88.6,62.6,30.05,WNW,296,6.0,8.0,42,0.00,,,0.00,Wunderground v.1.15,2013-09-06 19:13:00,
2013-09-06 14:19:00,88.3,62.3,30.05,WNW,296,6.0,8.0,42,0.00,,,0.00,Wunderground v.1.15,2013-09-06 19:19:00,
2013-09-06 14:25:00,88.0,61.3,30.05,SW,227,5.0,7.0,41,0.00,,,0.00,Wunderground v.1.15,2013-09-06 19:25:00,
2013-09-06 14:30:00,88.4,61.0,30.05,NW,305,6.0,6.0,40,0.00,,,0.00,Wunderground v.1.15,2013-09-06 19:30:00,
2013-09-06 14:36:00,88.6,61.9,30.04,West,280,6.0,7.0,41,0.00,,,0.00,Wunderground v.1.15,2013-09-06 19:36:00,
2013-09-06 14:41:00,88.7,60.6,30.04,West,281,7.0,7.0,39,0.00,,,0.00,Wunderground v.1.15,2013-09-06 19:41:00,
2013-09-06 14:47:00,89.0,61.5,30.04,SSE,161,6.0,7.0,40,0.00,,,0.00,Wunderground v.1.15,2013-09-06 19:47:00,
2013-09-06 14:52:00,89.2,61.0,30.03,SSE,161,2.0,3.0,39,0.00,,,0.00,Wunderground v.1.15,2013-09-06 19:52:00,
2013-09-06 15:07:00,89.4,58.1,30.03,WNW,287,5.0,5.0,35,0.00,,,0.00,Wunderground v.1.15,2013-09-06 20:07:00,
2013-09-06 15:13:00,89.8,60.8,30.03,WSW,242,3.0,11.0,38,0.00,,,0.00,Wunderground v.1.15,2013-09-06 20:13:00,
2013-09-06 15:19:00,89.6,59.9,30.02,WSW,254,4.0,11.0,37,0.00,,,0.00,Wunderground v.1.15,2013-09-06 20:19:00,
2013-09-06 15:24:00,89.3,58.8,30.02,SW,217,5.0,15.0,36,0.00,,,0.00,Wunderground v.1.15,2013-09-06 20:24:00,
2013-09-06 15:30:00,89.7,60.0,30.02,WSW,248,6.0,8.0,37,0.00,,,0.00,Wunderground v.1.15,2013-09-06 20:30:00,
2013-09-06 15:35:00,89.3,59.6,30.02,NW,307,6.0,9.0,37,0.00,,,0.00,Wunderground v.1.15,2013-09-06 20:35:00,
2013-09-06 15:40:00,89.6,59.9,30.01,SW,235,4.0,4.0,37,0.00,,,0.00,Wunderground v.1.15,2013-09-06 20:40:00,
2013-09-06 15:45:00,90.2,60.4,30.01,West,262,2.0,10.0,37,0.00,,,0.00,Wunderground v.1.15,2013-09-06 20:45:00,
2013-09-06 15:51:00,90.3,57.3,30.01,West,274,5.0,11.0,33,0.00,,,0.00,Wunderground v.1.15,2013-09-06 20:51:00,
2013-09-06 15:56:00,89.6,56.7,30.01,WNW,284,8.0,13.0,33,0.00,,,0.00,Wunderground v.1.15,2013-09-06 20:56:00,
2013-09-06 16:01:00,89.6,58.3,30.01,WNW,285,8.0,8.0,35,0.00,,,0.00,Wunderground v.1.15,2013-09-06 21:01:00,
2013-09-06 16:13:00,89.9,59.4,30.00,West,278,3.0,7.0,36,0.00,,,0.00,Wunderground v.1.15,2013-09-06 21:13:00,
2013-09-06 16:19:00,89.9,58.6,30.01,West,259,4.0,8.0,35,0.00,,,0.00,Wunderground v.1.15,2013-09-06 21:19:00,
2013-09-06 16:25:00,89.3,58.8,30.00,West,261,6.0,8.0,36,0.00,,,0.00,Wunderground v.1.15,2013-09-06 21:25:00,
2013-09-06 16:30:00,89.5,58.2,30.00,WSW,251,5.0,6.0,35,0.00,,,0.00,Wunderground v.1.15,2013-09-06 21:30:00,
2013-09-06 16:35:00,89.6,59.9,30.00,WNW,296,6.0,8.0,37,0.00,,,0.00,Wunderground v.1.15,2013-09-06 21:35:00,
2013-09-06 16:41:00,89.3,59.6,30.00,SW,215,5.0,5.0,37,0.00,,,0.00,Wunderground v.1.15,2013-09-06 21:41:00,
2013-09-06 16:46:00,89.6,59.1,30.00,West,269,4.0,6.0,36,0.00,,,0.00,Wunderground v.1.15,2013-09-06 21:46:00,
2013-09-06 16:51:00,89.2,59.5,30.00,WNW,286,5.0,5.0,37,0.00,,,0.00,Wunderground v.1.15,2013-09-06 21:51:00,
2013-09-06 16:57:00,89.3,59.6,29.99,WSW,249,5.0,9.0,37,0.00,,,0.00,Wunderground v.1.15,2013-09-06 21:57:00,
2013-09-06 17:02:00,89.2,58.8,29.99,WSW,243,5.0,5.0,36,0.00,,,0.00,Wunderground v.1.15,2013-09-06 22:02:00,
2013-09-06 17:22:00,89.0,60.1,29.99,WSW,241,5.0,7.0,38,0.00,,,0.00,Wunderground v.1.15,2013-09-06 22:22:00,
2013-09-06 17:27:00,88.8,59.2,29.99,SW,221,5.0,7.0,37,0.00,,,0.00,Wunderground v.1.15,2013-09-06 22:27:00,
2013-09-06 17:33:00,88.6,59.0,29.99,WSW,237,5.0,8.0,37,0.00,,,0.00,Wunderground v.1.15,2013-09-06 22:33:00,
2013-09-06 17:38:00,88.6,59.7,29.99,West,273,6.0,8.0,38,0.00,,,0.00,Wunderground v.1.15,2013-09-06 22:38:00,
2013-09-06 17:43:00,88.2,59.4,29.99,West,279,7.0,8.0,38,0.00,,,0.00,Wunderground v.1.15,2013-09-06 22:43:00,
2013-09-06 17:49:00,88.0,59.2,29.99,WNW,292,7.0,9.0,38,0.00,,,0.00,Wunderground v.1.15,2013-09-06 22:49:00,
2013-09-06 17:55:00,87.9,59.8,29.99,West,275,6.0,8.0,39,0.00,,,0.00,Wunderground v.1.15,2013-09-06 22:55:00,
2013-09-06 18:00:00,87.9,59.8,29.99,WSW,255,5.0,5.0,39,0.00,,,0.00,Wunderground v.1.15,2013-09-06 23:00:00,
2013-09-06 18:05:00,87.9,59.1,29.99,West,263,3.0,7.0,38,0.00,,,0.00,Wunderground v.1.15,2013-09-06 23:05:00,
2013-09-06 18:20:00,87.2,59.9,29.98,WSW,248,3.0,4.0,40,0.00,,,0.00,Wunderground v.1.15,2013-09-06 23:20:00,
2013-09-06 18:26:00,87.2,59.9,29.98,WSW,248,2.0,4.0,40,0.00,,,0.00,Wunderground v.1.15,2013-09-06 23:26:00,
2013-09-06 18:31:00,86.6,58.7,29.98,WSW,248,1.0,4.0,39,0.00,,,0.00,Wunderground v.1.15,2013-09-06 23:31:00,
2013-09-06 18:37:00,86.3,59.1,29.98,WSW,248,1.0,4.0,40,0.00,,,0.00,Wunderground v.1.15,2013-09-06 23:37:00,
2013-09-06 18:42:00,86.2,59.0,29.98,WSW,248,1.0,1.0,40,0.00,,,0.00,Wunderground v.1.15,2013-09-06 23:42:00,
2013-09-06 18:48:00,85.9,59.5,29.98,WSW,248,0.0,1.0,41,0.00,,,0.00,Wunderground v.1.15,2013-09-06 23:48:00,
2013-09-06 18:53:00,85.6,59.9,29.97,WSW,248,0.0,0.0,42,0.00,,,0.00,Wunderground v.1.15,2013-09-06 23:53:00,
2013-09-06 18:59:00,85.2,59.5,29.97,WSW,248,0.0,0.0,42,0.00,,,0.00,Wunderground v.1.15,2013-09-06 23:59:00,
2013-09-06 19:04:00,84.9,59.2,29.97,WSW,248,0.0,0.0,42,0.00,,,0.00,Wunderground v.1.15,2013-09-07 00:04:00,
2013-09-06 19:10:00,84.6,59.6,29.97,WSW,248,0.0,0.0,43,0.00,,,0.00,Wunderground v.1.15,2013-09-07 00:10:00,
2013-09-06 19:15:00,84.2,59.9,29.97,WSW,248,0.0,0.0,44,0.00,,,0.00,Wunderground v.1.15,2013-09-07 00:15:00,
2013-09-06 19:21:00,83.0,60.7,29.97,WSW,248,0.0,0.0,47,0.00,,,0.00,Wunderground v.1.15,2013-09-07 00:21:00,
2013-09-06 19:26:00,81.7,60.1,29.97,WSW,248,0.0,0.0,48,0.00,,,0.00,Wunderground v.1.15,2013-09-07 00:26:00,
2013-09-06 19:32:00,80.5,60.1,29.97,WSW,248,0.0,0.0,50,0.00,,,0.00,Wunderground v.1.15,2013-09-07 00:32:00,
2013-09-06 19:37:00,79.7,60.0,29.97,WSW,248,0.0,0.0,51,0.00,,,0.00,Wunderground v.1.15,2013-09-07 00:37:00,
2013-09-06 19:43:00,78.9,59.8,29.97,WSW,248,0.0,0.0,52,0.00,,,0.00,Wunderground v.1.15,2013-09-07 00:43:00,
2013-09-06 19:48:00,78.4,59.9,29.97,WSW,248,0.0,0.0,53,0.00,,,0.00,Wunderground v.1.15,2013-09-07 00:48:00,
2013-09-06 19:54:00,77.5,60.1,29.97,WSW,248,0.0,0.0,55,0.00,,,0.00,Wunderground v.1.15,2013-09-07 00:54:00,
2013-09-06 19:59:00,76.4,59.0,29.97,WSW,248,0.0,0.0,55,0.00,,,0.00,Wunderground v.1.15,2013-09-07 00:59:00,
2013-09-06 20:05:00,76.1,58.8,29.98,WSW,248,0.0,0.0,55,0.00,,,0.00,Wunderground v.1.15,2013-09-07 01:05:00,
2013-09-06 20:11:00,76.1,58.8,29.98,WSW,248,0.0,0.0,55,0.00,,,0.00,Wunderground v.1.15,2013-09-07 01:11:00,
2013-09-06 20:17:00,75.9,59.1,29.98,WSW,248,0.0,0.0,56,0.00,,,0.00,Wunderground v.1.15,2013-09-07 01:17:00,
2013-09-06 20:22:00,75.5,58.7,29.98,WSW,248,0.0,0.0,56,0.00,,,0.00,Wunderground v.1.15,2013-09-07 01:22:00,
2013-09-06 20:28:00,75.1,58.8,29.98,WSW,248,0.0,0.0,57,0.00,,,0.00,Wunderground v.1.15,2013-09-07 01:28:00,
2013-09-06 20:33:00,74.3,59.0,29.98,WSW,248,0.0,1.0,59,0.00,,,0.00,Wunderground v.1.15,2013-09-07 01:33:00,
2013-09-06 20:39:00,73.7,58.9,29.99,WSW,248,0.0,1.0,60,0.00,,,0.00,Wunderground v.1.15,2013-09-07 01:39:00,
2013-09-06 20:44:00,73.3,59.0,29.99,WSW,248,0.0,0.0,61,0.00,,,0.00,Wunderground v.1.15,2013-09-07 01:44:00,
2013-09-06 20:50:00,73.0,58.8,29.99,WSW,248,0.0,0.0,61,0.00,,,0.00,Wunderground v.1.15,2013-09-07 01:50:00,
2013-09-06 20:55:00,72.7,58.9,29.99,WSW,248,0.0,0.0,62,0.00,,,0.00,Wunderground v.1.15,2013-09-07 01:55:00,
2013-09-06 21:01:00,72.4,59.1,29.99,WSW,248,0.0,0.0,63,0.00,,,0.00,Wunderground v.1.15,2013-09-07 02:01:00,
2013-09-06 21:10:00,72.1,59.7,29.99,WSW,248,0.0,0.0,65,0.00,,,0.00,Wunderground v.1.15,2013-09-07 02:10:00,
2013-09-06 21:21:00,71.5,60.0,29.99,WSW,248,0.0,0.0,67,0.00,,,0.00,Wunderground v.1.15,2013-09-07 02:21:00,
2013-09-06 21:35:00,70.7,59.6,29.99,WSW,248,0.0,0.0,68,0.00,,,0.00,Wunderground v.1.15,2013-09-07 02:35:00,
2013-09-06 21:41:00,70.1,59.9,29.99,WSW,248,0.0,0.0,70,0.00,,,0.00,Wunderground v.1.15,2013-09-07 02:41:00,
2013-09-06 21:59:00,69.4,60.0,29.99,WSW,248,0.0,0.0,72,0.00,,,0.00,Wunderground v.1.15,2013-09-07 02:59:00,
2013-09-06 22:05:00,69.2,60.2,29.98,WSW,248,0.0,0.0,73,0.00,,,0.00,Wunderground v.1.15,2013-09-07 03:05:00,
2013-09-06 22:10:00,69.0,60.0,29.98,WSW,248,0.0,1.0,73,0.00,,,0.00,Wunderground v.1.15,2013-09-07 03:10:00,
2013-09-06 22:16:00,68.8,60.2,29.98,WSW,248,1.0,3.0,74,0.00,,,0.00,Wunderground v.1.15,2013-09-07 03:16:00,
2013-09-06 22:21:00,68.9,59.9,29.98,WSW,248,1.0,1.0,73,0.00,,,0.00,Wunderground v.1.15,2013-09-07 03:21:00,
2013-09-06 22:27:00,68.8,59.8,29.98,WSW,248,0.0,1.0,73,0.00,,,0.00,Wunderground v.1.15,2013-09-07 03:27:00,
2013-09-06 22:32:00,68.7,59.7,29.99,WSW,248,0.0,0.0,73,0.00,,,0.00,Wunderground v.1.15,2013-09-07 03:32:00,
2013-09-06 22:38:00,68.9,59.5,29.99,WSW,248,0.0,0.0,72,0.00,,,0.00,Wunderground v.1.15,2013-09-07 03:38:00,
2013-09-06 22:43:00,69.1,59.3,29.99,WSW,248,0.0,0.0,71,0.00,,,0.00,Wunderground v.1.15,2013-09-07 03:43:00,
2013-09-06 22:49:00,69.5,59.3,29.99,WSW,248,0.0,2.0,70,0.00,,,0.00,Wunderground v.1.15,2013-09-07 03:49:00,
2013-09-06 22:57:00,69.7,59.5,29.98,WSW,248,0.0,0.0,70,0.00,,,0.00,Wunderground v.1.15,2013-09-07 03:57:00,
2013-09-06 23:01:00,69.3,59.1,29.98,WSW,248,0.0,0.0,70,0.00,,,0.00,Wunderground v.1.15,2013-09-07 04:01:00,
2013-09-06 23:03:00,69.1,59.3,29.98,WSW,248,0.0,0.0,71,0.00,,,0.00,Wunderground v.1.15,2013-09-07 04:03:00,
2013-09-06 23:04:00,68.9,59.1,29.98,WSW,248,0.0,0.0,71,0.00,,,0.00,Wunderground v.1.15,2013-09-07 04:04:00,
2013-09-06 23:06:00,68.5,59.1,29.98,WSW,248,0.0,0.0,72,0.00,,,0.00,Wunderground v.1.15,2013-09-07 04:06:00,
2013-09-06 23:09:00,68.0,59.0,29.98,WSW,248,0.0,0.0,73,0.00,,,0.00,Wunderground v.1.15,2013-09-07 04:09:00,
2013-09-06 23:13:00,67.5,58.5,29.98,WSW,248,0.0,2.0,73,0.00,,,0.00,Wunderground v.1.15,2013-09-07 04:13:00,
2013-09-06 23:18:00,67.3,58.7,29.98,WSW,248,1.0,2.0,74,0.00,,,0.00,Wunderground v.1.15,2013-09-07 04:18:00,
2013-09-06 23:23:00,67.5,58.5,29.98,WSW,248,1.0,2.0,73,0.00,,,0.00,Wunderground v.1.15,2013-09-07 04:23:00,
2013-09-06 23:29:00,67.8,58.8,29.98,WSW,248,1.0,2.0,73,0.00,,,0.00,Wunderground v.1.15,2013-09-07 04:29:00,
2013-09-06 23:34:00,67.7,58.7,29.98,WSW,248,1.0,2.0,73,0.00,,,0.00,Wunderground v.1.15,2013-09-07 04:34:00,
2013-09-06 23:40:00,67.5,58.5,29.98,WSW,248,1.0,1.0,73,0.00,,,0.00,Wunderground v.1.15,2013-09-07 04:40:00,
2013-09-06 23:45:00,67.4,58.4,29.98,WSW,248,0.0,2.0,73,0.00,,,0.00,Wunderground v.1.15,2013-09-07 04:45:00,
2013-09-06 23:51:00,67.2,58.6,29.98,WSW,248,0.0,1.0,74,0.00,,,0.00,Wunderground v.1.15,2013-09-07 04:51:00,
2013-09-06 23:56:00,67.1,58.5,29.98,WSW,248,1.0,2.0,74,0.00,,,0.00,Wunderground v.1.15,2013-09-07 04:56:00,